User: anonymous   Login
Location: Unspecified
(0.0000°N, 0.0000°E)
Time: 18:55:02
(UTC+00:00)
Language:

Courier 1B - Orbit

View from above orbital plane
View from above orbital plane
View from above satellite
View from above satellite

Ground track
Ground track

The orbit data is extracted from the following two-line orbital elements,

1 00058U 60013A   14325.43871445  .00000103  00000-0  27150-4 0  8176
2 00058 028.3292 338.5605 0165029 141.4905 219.7541 13.46283886664709
Epoch (UTC): 21 November 2014 10:31:44
Eccentricity: 0.0165029
inclination: 28.3292°
perigee height: 963 km
apogee height: 1209 km
right ascension of ascending node: 338.5605°
argument of perigee: 141.4905°
revolutions per day: 13.46283886
mean anomaly at epoch: 219.7541°
orbit number at epoch: 66470

The dashed part of the orbit path shows where the satellite is in the earth's shadow,  

DLR